Time,TemperatureF,DewpointF,PressureIn,WindDirection,WindDirectionDegrees,WindSpeedMPH,WindSpeedGustMPH,Humidity,HourlyPrecipIn,Conditions,Clouds,dailyrainin,SoftwareType,DateUTC
2013-10-09 00:01:00,56.7,45.0,30.01,North,1,0.0,0.0,65,0.00,CLR,,0.00,WeatherDisplay:10.37,2013-10-09 05:01:00,
2013-10-09 00:06:00,56.7,45.0,30.01,North,1,0.0,0.0,65,0.00,CLR,,0.00,WeatherDisplay:10.37,2013-10-09 05:06:00,
2013-10-09 00:11:00,56.5,44.9,30.01,North,1,0.0,0.0,65,0.00,CLR,,0.00,WeatherDisplay:10.37,2013-10-09 05:11:00,
2013-10-09 00:16:00,56.3,44.7,30.01,North,1,0.0,0.0,65,0.00,CLR,,0.00,WeatherDisplay:10.37,2013-10-09 05:16:00,
2013-10-09 00:21:00,56.3,44.7,30.02,North,1,0.0,0.0,65,0.00,CLR,,0.00,WeatherDisplay:10.37,2013-10-09 05:21:00,
2013-10-09 00:26:00,56.1,44.9,30.02,North,1,0.0,0.0,66,0.00,CLR,,0.00,WeatherDisplay:10.37,2013-10-09 05:26:00,
2013-10-09 00:31:00,55.9,44.7,30.02,North,1,0.0,0.0,66,0.00,CLR,,0.00,WeatherDisplay:10.37,2013-10-09 05:31:00,
2013-10-09 00:36:00,55.8,45.0,30.02,North,1,0.0,0.0,67,0.00,CLR,,0.00,WeatherDisplay:10.37,2013-10-09 05:36:00,
2013-10-09 00:41:00,55.6,44.8,30.02,North,1,0.0,0.0,67,0.00,CLR,,0.00,WeatherDisplay:10.37,2013-10-09 05:41:00,
2013-10-09 00:46:00,55.4,44.6,30.01,North,1,0.0,0.0,67,0.00,CLR,,0.00,WeatherDisplay:10.37,2013-10-09 05:46:00,
2013-10-09 00:51:00,55.2,44.4,30.02,North,1,0.0,0.0,67,0.00,CLR,,0.00,WeatherDisplay:10.37,2013-10-09 05:51:00,
2013-10-09 00:56:00,55.2,44.4,30.02,North,1,0.0,0.0,67,0.00,CLR,,0.00,WeatherDisplay:10.37,2013-10-09 05:56:00,
2013-10-09 01:01:00,55.0,44.7,30.02,North,1,0.0,0.0,68,0.00,CLR,,0.00,WeatherDisplay:10.37,2013-10-09 06:01:00,
2013-10-09 01:06:00,54.9,44.5,30.02,North,1,0.0,0.0,68,0.00,CLR,,0.00,WeatherDisplay:10.37,2013-10-09 06:06:00,
2013-10-09 01:11:00,54.7,44.3,30.02,North,1,0.0,0.0,68,0.00,CLR,,0.00,WeatherDisplay:10.37,2013-10-09 06:11:00,
2013-10-09 01:16:00,54.5,44.2,30.02,North,1,0.0,0.0,68,0.00,CLR,,0.00,WeatherDisplay:10.37,2013-10-09 06:16:00,
2013-10-09 01:21:00,54.5,44.2,30.02,North,1,0.0,0.0,68,0.00,CLR,,0.00,WeatherDisplay:10.37,2013-10-09 06:21:00,
2013-10-09 01:26:00,54.3,44.4,30.02,North,1,0.0,0.0,69,0.00,CLR,,0.00,WeatherDisplay:10.37,2013-10-09 06:26:00,
2013-10-09 01:31:00,54.3,44.4,30.02,North,1,0.0,0.0,69,0.00,CLR,,0.00,WeatherDisplay:10.37,2013-10-09 06:31:00,
2013-10-09 01:36:00,54.1,44.2,30.02,North,1,0.0,0.0,69,0.00,CLR,,0.00,WeatherDisplay:10.37,2013-10-09 06:36:00,
2013-10-09 01:41:00,54.0,44.0,30.02,North,1,0.0,0.0,69,0.00,CLR,,0.00,WeatherDisplay:10.37,2013-10-09 06:41:00,
2013-10-09 01:46:00,53.8,43.8,30.02,North,1,0.0,0.0,69,0.00,CLR,,0.00,WeatherDisplay:10.37,2013-10-09 06:46:00,
2013-10-09 01:51:00,53.8,44.2,30.02,North,1,0.0,0.0,70,0.00,CLR,,0.00,WeatherDisplay:10.37,2013-10-09 06:51:00,
2013-10-09 01:56:00,53.8,44.2,30.02,North,1,0.0,0.0,70,0.00,CLR,,0.00,WeatherDisplay:10.37,2013-10-09 06:56:00,
2013-10-09 02:01:00,53.6,44.0,30.03,North,1,0.0,0.0,70,0.00,CLR,,0.00,WeatherDisplay:10.37,2013-10-09 07:01:00,
2013-10-09 02:06:00,53.6,44.0,30.03,North,1,0.0,0.0,70,0.00,CLR,,0.00,WeatherDisplay:10.37,2013-10-09 07:06:00,
2013-10-09 02:11:00,53.6,44.0,30.03,North,1,0.0,0.0,70,0.00,CLR,,0.00,WeatherDisplay:10.37,2013-10-09 07:11:00,
2013-10-09 02:16:00,53.6,44.0,30.03,North,1,0.0,0.0,70,0.00,CLR,,0.00,WeatherDisplay:10.37,2013-10-09 07:16:00,
2013-10-09 02:21:00,53.4,43.9,30.03,North,1,0.0,0.0,70,0.00,CLR,,0.00,WeatherDisplay:10.37,2013-10-09 07:21:00,
2013-10-09 02:26:00,53.4,44.2,30.03,North,1,0.0,0.0,71,0.00,CLR,,0.00,WeatherDisplay:10.37,2013-10-09 07:26:00,
2013-10-09 02:31:00,53.2,44.1,30.03,North,1,0.0,0.0,71,0.00,CLR,,0.00,WeatherDisplay:10.37,2013-10-09 07:31:00,
2013-10-09 02:36:00,53.2,44.1,30.03,North,1,0.0,0.0,71,0.00,CLR,,0.00,WeatherDisplay:10.37,2013-10-09 07:36:00,
2013-10-09 02:41:00,53.1,43.9,30.02,North,1,0.0,0.0,71,0.00,CLR,,0.00,WeatherDisplay:10.37,2013-10-09 07:41:00,
2013-10-09 02:46:00,53.1,43.9,30.02,North,1,0.0,0.0,71,0.00,CLR,,0.00,WeatherDisplay:10.37,2013-10-09 07:46:00,
2013-10-09 02:51:00,53.1,44.3,30.02,North,1,0.0,0.0,72,0.00,CLR,,0.00,WeatherDisplay:10.37,2013-10-09 07:51:00,
2013-10-09 02:56:00,53.1,44.3,30.03,North,1,0.0,0.0,72,0.00,CLR,,0.00,WeatherDisplay:10.37,2013-10-09 07:56:00,
2013-10-09 03:01:00,53.1,44.3,30.03,North,1,0.0,0.0,72,0.00,CLR,,0.00,WeatherDisplay:10.37,2013-10-09 08:01:00,
2013-10-09 03:06:00,53.1,43.9,30.03,North,1,0.0,0.0,71,0.00,CLR,,0.00,WeatherDisplay:10.37,2013-10-09 08:06:00,
2013-10-09 03:11:00,53.1,43.9,30.03,North,1,0.0,0.0,71,0.00,CLR,,0.00,WeatherDisplay:10.37,2013-10-09 08:11:00,
2013-10-09 03:16:00,52.9,43.7,30.03,North,1,0.0,0.0,71,0.00,CLR,,0.00,WeatherDisplay:10.37,2013-10-09 08:16:00,
2013-10-09 03:21:00,52.9,43.7,30.03,North,1,0.0,0.0,71,0.00,CLR,,0.00,WeatherDisplay:10.37,2013-10-09 08:21:00,
2013-10-09 03:26:00,52.7,43.6,30.03,North,1,0.0,0.0,71,0.00,CLR,,0.00,WeatherDisplay:10.37,2013-10-09 08:26:00,
2013-10-09 03:31:00,52.7,43.6,30.03,North,1,0.0,0.0,71,0.00,CLR,,0.00,WeatherDisplay:10.37,2013-10-09 08:31:00,
2013-10-09 03:36:00,52.7,43.6,30.03,North,1,0.0,0.0,71,0.00,CLR,,0.00,WeatherDisplay:10.37,2013-10-09 08:36:00,
2013-10-09 03:41:00,52.5,43.4,30.03,North,1,0.0,0.0,71,0.00,CLR,,0.00,WeatherDisplay:10.37,2013-10-09 08:41:00,
2013-10-09 03:46:00,52.5,43.8,30.03,North,1,0.0,0.0,72,0.00,CLR,,0.00,WeatherDisplay:10.37,2013-10-09 08:46:00,
2013-10-09 03:51:00,52.5,43.8,30.03,North,1,0.0,0.0,72,0.00,CLR,,0.00,WeatherDisplay:10.37,2013-10-09 08:51:00,
2013-10-09 03:56:00,52.5,43.8,30.03,North,1,0.0,0.0,72,0.00,CLR,,0.00,WeatherDisplay:10.37,2013-10-09 08:56:00,
2013-10-09 04:01:00,52.5,43.8,30.03,North,1,0.0,0.0,72,0.00,CLR,,0.00,WeatherDisplay:10.37,2013-10-09 09:01:00,
2013-10-09 04:06:00,52.5,43.8,30.03,North,1,0.0,0.0,72,0.00,CLR,,0.00,WeatherDisplay:10.37,2013-10-09 09:06:00,
2013-10-09 04:11:00,52.5,43.8,30.03,North,1,0.0,0.0,72,0.00,CLR,,0.00,WeatherDisplay:10.37,2013-10-09 09:11:00,
2013-10-09 04:16:00,52.2,43.4,30.03,North,1,0.0,0.0,72,0.00,CLR,,0.00,WeatherDisplay:10.37,2013-10-09 09:16:00,
2013-10-09 04:21:00,52.2,43.4,30.03,North,1,0.0,0.0,72,0.00,CLR,,0.00,WeatherDisplay:10.37,2013-10-09 09:21:00,
2013-10-09 04:26:00,52.2,43.4,30.03,North,1,0.0,0.0,72,0.00,CLR,,0.00,WeatherDisplay:10.37,2013-10-09 09:26:00,
2013-10-09 04:31:00,52.2,43.4,30.03,North,1,0.0,0.0,72,0.00,CLR,,0.00,WeatherDisplay:10.37,2013-10-09 09:31:00,
2013-10-09 04:36:00,52.2,43.4,30.03,North,1,0.0,0.0,72,0.00,CLR,,0.00,WeatherDisplay:10.37,2013-10-09 09:36:00,
2013-10-09 04:41:00,52.2,43.4,30.03,North,1,0.0,0.0,72,0.00,CLR,,0.00,WeatherDisplay:10.37,2013-10-09 09:41:00,
2013-10-09 04:46:00,51.6,42.9,30.03,North,1,0.0,0.0,72,0.00,CLR,,0.00,WeatherDisplay:10.37,2013-10-09 09:46:00,
2013-10-09 04:51:00,51.4,42.7,30.03,North,1,0.0,0.0,72,0.00,CLR,,0.00,WeatherDisplay:10.37,2013-10-09 09:51:00,
2013-10-09 04:56:00,51.3,42.9,30.03,North,1,0.0,0.0,73,0.00,CLR,,0.00,WeatherDisplay:10.37,2013-10-09 09:56:00,
2013-10-09 05:01:00,51.1,42.7,30.03,North,1,0.0,0.0,73,0.00,CLR,,0.00,WeatherDisplay:10.37,2013-10-09 10:01:00,
2013-10-09 05:06:00,50.9,42.6,30.04,North,1,0.0,0.0,73,0.00,CLR,,0.00,WeatherDisplay:10.37,2013-10-09 10:06:00,
2013-10-09 05:11:00,50.9,42.6,30.04,North,1,0.0,0.0,73,0.00,CLR,,0.00,WeatherDisplay:10.37,2013-10-09 10:11:00,
2013-10-09 05:16:00,50.7,42.4,30.04,North,1,0.0,0.0,73,0.00,CLR,,0.00,WeatherDisplay:10.37,2013-10-09 10:16:00,
2013-10-09 05:21:00,50.5,42.2,30.04,North,1,0.0,0.0,73,0.00,CLR,,0.00,WeatherDisplay:10.37,2013-10-09 10:21:00,
2013-10-09 05:26:00,50.5,42.2,30.04,North,1,0.0,0.0,73,0.00,CLR,,0.00,WeatherDisplay:10.37,2013-10-09 10:26:00,
2013-10-09 05:31:00,50.4,42.0,30.03,North,1,0.0,0.0,73,0.00,CLR,,0.00,WeatherDisplay:10.37,2013-10-09 10:31:00,
2013-10-09 05:36:00,50.4,42.4,30.03,North,1,0.0,0.0,74,0.00,CLR,,0.00,WeatherDisplay:10.37,2013-10-09 10:36:00,
2013-10-09 05:41:00,50.2,42.2,30.04,North,1,0.0,0.0,74,0.00,CLR,,0.00,WeatherDisplay:10.37,2013-10-09 10:41:00,
2013-10-09 05:46:00,50.2,42.2,30.03,North,1,0.0,0.0,74,0.00,CLR,,0.00,WeatherDisplay:10.37,2013-10-09 10:46:00,
2013-10-09 05:51:00,50.0,42.0,30.03,North,1,0.0,0.0,74,0.00,CLR,,0.00,WeatherDisplay:10.37,2013-10-09 10:51:00,
2013-10-09 05:56:00,50.2,42.6,30.03,North,1,0.0,0.0,75,0.00,CLR,,0.00,WeatherDisplay:10.37,2013-10-09 10:56:00,
2013-10-09 06:01:00,50.0,42.4,30.04,North,1,0.0,0.0,75,0.00,CLR,,0.00,WeatherDisplay:10.37,2013-10-09 11:01:00,
2013-10-09 06:06:00,50.0,42.4,30.03,North,1,0.0,0.0,75,0.00,CLR,,0.00,WeatherDisplay:10.37,2013-10-09 11:06:00,
2013-10-09 06:11:00,50.0,42.4,30.03,North,1,0.0,0.0,75,0.00,CLR,,0.00,WeatherDisplay:10.37,2013-10-09 11:11:00,
2013-10-09 06:16:00,50.0,42.4,30.03,North,1,0.0,0.0,75,0.00,CLR,,0.00,WeatherDisplay:10.37,2013-10-09 11:16:00,
2013-10-09 06:21:00,50.0,42.4,30.03,North,1,0.0,0.0,75,0.00,CLR,,0.00,WeatherDisplay:10.37,2013-10-09 11:21:00,
2013-10-09 06:26:00,50.0,42.4,30.03,North,1,0.0,0.0,75,0.00,CLR,,0.00,WeatherDisplay:10.37,2013-10-09 11:26:00,
2013-10-09 06:31:00,49.8,42.2,30.03,North,1,0.0,0.0,75,0.00,CLR,,0.00,WeatherDisplay:10.37,2013-10-09 11:31:00,
2013-10-09 06:36:00,49.8,42.2,30.04,North,1,0.0,0.0,75,0.00,CLR,,0.00,WeatherDisplay:10.37,2013-10-09 11:36:00,
2013-10-09 06:41:00,49.8,42.2,30.04,North,1,0.0,0.0,75,0.00,CLR,,0.00,WeatherDisplay:10.37,2013-10-09 11:41:00,
2013-10-09 06:46:00,49.8,42.2,30.04,North,1,0.0,0.0,75,0.00,CLR,,0.00,WeatherDisplay:10.37,2013-10-09 11:46:00,
2013-10-09 06:51:00,49.8,42.2,30.04,North,1,0.0,0.0,75,0.00,CLR,,0.00,WeatherDisplay:10.37,2013-10-09 11:51:00,
2013-10-09 06:56:00,49.8,42.2,30.04,North,1,0.0,0.0,75,0.00,CLR,,0.00,WeatherDisplay:10.37,2013-10-09 11:56:00,
2013-10-09 07:01:00,49.8,42.2,30.04,North,1,0.0,0.0,75,0.00,CLR,,0.00,WeatherDisplay:10.37,2013-10-09 12:01:00,
2013-10-09 07:03:00,49.8,42.2,30.04,North,1,0.0,0.0,75,0.00,CLR,,0.00,WeatherDisplay:10.37,2013-10-09 12:03:00,
2013-10-09 07:08:00,49.6,41.7,30.04,North,1,0.0,0.0,74,0.00,CLR,,0.00,WeatherDisplay:10.37,2013-10-09 12:08:00,
2013-10-09 07:13:00,49.6,41.7,30.04,North,1,0.0,0.0,74,0.00,CLR,,0.00,WeatherDisplay:10.37,2013-10-09 12:13:00,
2013-10-09 07:18:00,49.8,42.2,30.04,North,1,0.0,0.0,75,0.00,CLR,,0.00,WeatherDisplay:10.37,2013-10-09 12:18:00,
2013-10-09 07:23:00,50.0,42.4,30.04,North,1,0.0,0.0,75,0.00,CLR,,0.00,WeatherDisplay:10.37,2013-10-09 12:23:00,
2013-10-09 07:28:00,50.2,42.6,30.04,North,1,0.0,0.0,75,0.00,CLR,,0.00,WeatherDisplay:10.37,2013-10-09 12:28:00,
2013-10-09 07:33:00,50.4,42.4,30.04,North,1,0.0,0.0,74,0.00,CLR,,0.00,WeatherDisplay:10.37,2013-10-09 12:33:00,
2013-10-09 07:38:00,50.5,42.6,30.04,North,1,0.0,0.0,74,0.00,CLR,,0.00,WeatherDisplay:10.37,2013-10-09 12:38:00,
2013-10-09 07:43:00,50.7,42.7,30.04,North,1,0.0,0.0,74,0.00,CLR,,0.00,WeatherDisplay:10.37,2013-10-09 12:43:00,
2013-10-09 07:48:00,50.7,42.7,30.05,North,1,0.0,0.0,74,0.00,CLR,,0.00,WeatherDisplay:10.37,2013-10-09 12:48:00,
2013-10-09 07:53:00,50.7,42.7,30.05,North,1,0.0,0.0,74,0.00,CLR,,0.00,WeatherDisplay:10.37,2013-10-09 12:53:00,
2013-10-09 07:58:00,50.7,42.7,30.05,North,1,0.0,0.0,74,0.00,CLR,,0.00,WeatherDisplay:10.37,2013-10-09 12:58:00,
2013-10-09 08:03:00,50.9,42.9,30.05,North,1,0.0,0.0,74,0.00,CLR,,0.00,WeatherDisplay:10.37,2013-10-09 13:03:00,
2013-10-09 08:08:00,51.1,43.1,30.05,North,1,0.0,0.0,74,0.00,CLR,,0.00,WeatherDisplay:10.37,2013-10-09 13:08:00,
2013-10-09 08:13:00,51.1,42.7,30.05,North,1,0.0,0.0,73,0.00,CLR,,0.00,WeatherDisplay:10.37,2013-10-09 13:13:00,
2013-10-09 08:18:00,51.3,42.9,30.05,North,1,0.0,0.0,73,0.00,CLR,,0.00,WeatherDisplay:10.37,2013-10-09 13:18:00,
2013-10-09 08:23:00,51.6,43.2,30.05,North,1,0.0,0.0,73,0.00,CLR,,0.00,WeatherDisplay:10.37,2013-10-09 13:23:00,
2013-10-09 08:28:00,51.8,43.4,30.05,North,1,0.0,0.0,73,0.00,CLR,,0.00,WeatherDisplay:10.37,2013-10-09 13:28:00,
2013-10-09 08:33:00,52.3,43.9,30.05,North,1,0.0,0.0,73,0.00,CLR,,0.00,WeatherDisplay:10.37,2013-10-09 13:33:00,
2013-10-09 08:38:00,53.1,44.3,30.06,North,1,0.0,0.0,72,0.00,CLR,,0.00,WeatherDisplay:10.37,2013-10-09 13:38:00,
2013-10-09 08:43:00,53.8,45.0,30.05,North,1,0.0,0.0,72,0.00,CLR,,0.00,WeatherDisplay:10.37,2013-10-09 13:43:00,
2013-10-09 08:48:00,54.7,45.5,30.05,North,1,0.0,0.0,71,0.00,CLR,,0.00,WeatherDisplay:10.37,2013-10-09 13:48:00,
2013-10-09 08:53:00,56.1,46.5,30.06,North,1,0.0,0.0,70,0.00,CLR,,0.00,WeatherDisplay:10.37,2013-10-09 13:53:00,
2013-10-09 08:58:00,57.0,46.9,30.06,North,1,0.0,0.0,69,0.00,CLR,,0.00,WeatherDisplay:10.37,2013-10-09 13:58:00,
2013-10-09 09:03:00,57.9,47.0,30.06,North,1,0.0,0.0,67,0.00,CLR,,0.00,WeatherDisplay:10.37,2013-10-09 14:03:00,
2013-10-09 09:08:00,59.2,47.8,30.06,North,1,0.0,0.0,66,0.00,CLR,,0.00,WeatherDisplay:10.37,2013-10-09 14:08:00,
2013-10-09 09:13:00,59.9,47.7,30.06,North,1,0.0,0.0,64,0.00,CLR,,0.00,WeatherDisplay:10.37,2013-10-09 14:13:00,
2013-10-09 09:18:00,60.4,47.8,30.06,North,1,0.0,0.0,63,0.00,CLR,,0.00,WeatherDisplay:10.37,2013-10-09 14:18:00,
2013-10-09 09:23:00,61.7,49.0,30.06,North,1,0.0,0.0,63,0.00,CLR,,0.00,WeatherDisplay:10.37,2013-10-09 14:23:00,
2013-10-09 09:28:00,62.2,48.6,30.06,North,1,0.0,0.0,61,0.00,CLR,,0.00,WeatherDisplay:10.37,2013-10-09 14:28:00,
2013-10-09 09:33:00,62.4,48.8,30.06,North,1,0.0,0.0,61,0.00,CLR,,0.00,WeatherDisplay:10.37,2013-10-09 14:33:00,
2013-10-09 09:38:00,63.5,49.8,30.06,North,1,0.0,0.0,61,0.00,CLR,,0.00,WeatherDisplay:10.37,2013-10-09 14:38:00,
2013-10-09 09:43:00,63.5,48.9,30.07,North,1,0.0,0.0,59,0.00,CLR,,0.00,WeatherDisplay:10.37,2013-10-09 14:43:00,
2013-10-09 09:48:00,64.2,49.1,30.07,North,1,0.0,0.0,58,0.00,CLR,,0.00,WeatherDisplay:10.37,2013-10-09 14:48:00,
2013-10-09 09:53:00,64.8,49.2,30.07,North,1,0.0,0.0,57,0.00,CLR,,0.00,WeatherDisplay:10.37,2013-10-09 14:53:00,
2013-10-09 09:58:00,65.1,49.0,30.07,North,1,0.0,0.0,56,0.00,CLR,,0.00,WeatherDisplay:10.37,2013-10-09 14:58:00,
2013-10-09 10:03:00,65.1,49.0,30.07,North,1,0.0,0.0,56,0.00,CLR,,0.00,WeatherDisplay:10.37,2013-10-09 15:03:00,
2013-10-09 10:08:00,65.1,48.5,30.08,North,1,0.0,0.0,55,0.00,CLR,,0.00,WeatherDisplay:10.37,2013-10-09 15:08:00,
2013-10-09 10:13:00,64.9,48.4,30.08,North,1,0.0,0.0,55,0.00,CLR,,0.00,WeatherDisplay:10.37,2013-10-09 15:13:00,
2013-10-09 10:18:00,64.8,48.2,30.08,North,1,0.0,0.0,55,0.00,CLR,,0.00,WeatherDisplay:10.37,2013-10-09 15:18:00,
2013-10-09 10:23:00,65.3,48.2,30.08,North,1,0.0,0.0,54,0.00,CLR,,0.00,WeatherDisplay:10.37,2013-10-09 15:23:00,
2013-10-09 10:28:00,65.5,48.4,30.08,North,1,0.0,0.0,54,0.00,CLR,,0.00,WeatherDisplay:10.37,2013-10-09 15:28:00,
2013-10-09 10:33:00,65.7,48.6,30.08,North,1,0.0,0.0,54,0.00,CLR,,0.00,WeatherDisplay:10.37,2013-10-09 15:33:00,
2013-10-09 10:38:00,66.0,48.4,30.08,North,1,0.0,0.0,53,0.00,CLR,,0.00,WeatherDisplay:10.37,2013-10-09 15:38:00,
2013-10-09 10:43:00,66.0,48.4,30.08,North,1,0.0,0.0,53,0.00,CLR,,0.00,WeatherDisplay:10.37,2013-10-09 15:43:00,
2013-10-09 10:48:00,66.6,48.9,30.08,North,1,0.0,0.0,53,0.00,CLR,,0.00,WeatherDisplay:10.37,2013-10-09 15:48:00,
2013-10-09 10:53:00,67.3,49.0,30.08,North,1,0.0,0.0,52,0.00,CLR,,0.00,WeatherDisplay:10.37,2013-10-09 15:53:00,
2013-10-09 10:58:00,67.8,49.0,30.08,North,1,0.0,0.0,51,0.00,CLR,,0.00,WeatherDisplay:10.37,2013-10-09 15:58:00,
2013-10-09 11:03:00,68.4,49.5,30.08,North,1,0.0,0.0,51,0.00,CLR,,0.00,WeatherDisplay:10.37,2013-10-09 16:03:00,
2013-10-09 11:08:00,68.9,49.5,30.08,North,1,0.0,0.0,50,0.00,CLR,,0.00,WeatherDisplay:10.37,2013-10-09 16:08:00,
2013-10-09 11:13:00,69.3,49.8,30.08,North,1,0.0,0.0,50,0.00,CLR,,0.00,WeatherDisplay:10.37,2013-10-09 16:13:00,
2013-10-09 11:18:00,70.0,49.9,30.08,North,1,0.0,0.0,49,0.00,CLR,,0.00,WeatherDisplay:10.37,2013-10-09 16:18:00,
2013-10-09 11:23:00,70.5,49.9,30.07,North,1,0.0,0.0,48,0.00,CLR,,0.00,WeatherDisplay:10.37,2013-10-09 16:23:00,
2013-10-09 11:28:00,70.9,50.2,30.07,North,1,0.0,0.0,48,0.00,CLR,,0.00,WeatherDisplay:10.37,2013-10-09 16:28:00,
2013-10-09 11:33:00,71.1,49.8,30.07,North,1,0.0,0.0,47,0.00,CLR,,0.00,WeatherDisplay:10.37,2013-10-09 16:33:00,
2013-10-09 11:38:00,71.1,49.8,30.07,North,1,0.0,0.0,47,0.00,CLR,,0.00,WeatherDisplay:10.37,2013-10-09 16:38:00,
2013-10-09 11:43:00,71.2,49.4,30.07,North,1,0.0,0.0,46,0.00,CLR,,0.00,WeatherDisplay:10.37,2013-10-09 16:43:00,
2013-10-09 11:48:00,71.4,49.6,30.07,North,1,0.0,0.0,46,0.00,CLR,,0.00,WeatherDisplay:10.37,2013-10-09 16:48:00,
2013-10-09 11:53:00,71.4,49.6,30.07,North,1,0.0,0.0,46,0.00,CLR,,0.00,WeatherDisplay:10.37,2013-10-09 16:53:00,
2013-10-09 11:58:00,71.4,49.6,30.07,North,1,0.0,0.0,46,0.00,CLR,,0.00,WeatherDisplay:10.37,2013-10-09 16:58:00,
2013-10-09 12:03:00,72.0,49.5,30.06,North,1,0.0,0.0,45,0.00,CLR,,0.00,WeatherDisplay:10.37,2013-10-09 17:03:00,
2013-10-09 12:08:00,72.5,49.9,30.07,North,1,0.0,0.0,45,0.00,CLR,,0.00,WeatherDisplay:10.37,2013-10-09 17:08:00,
2013-10-09 12:13:00,72.9,50.3,30.06,North,1,0.0,0.0,45,0.00,CLR,,0.00,WeatherDisplay:10.37,2013-10-09 17:13:00,
2013-10-09 12:18:00,73.6,50.9,30.07,North,1,0.0,0.0,45,0.00,CLR,,0.00,WeatherDisplay:10.37,2013-10-09 17:18:00,
2013-10-09 12:23:00,73.8,50.5,30.07,North,1,0.0,0.0,44,0.00,CLR,,0.00,WeatherDisplay:10.37,2013-10-09 17:23:00,
2013-10-09 12:28:00,74.1,50.8,30.07,North,1,0.0,0.0,44,0.00,CLR,,0.00,WeatherDisplay:10.37,2013-10-09 17:28:00,
2013-10-09 12:33:00,74.1,50.2,30.07,North,1,0.0,0.0,43,0.00,CLR,,0.00,WeatherDisplay:10.37,2013-10-09 17:33:00,
2013-10-09 12:38:00,74.5,50.5,30.07,North,1,0.0,0.0,43,0.00,CLR,,0.00,WeatherDisplay:10.37,2013-10-09 17:38:00,
2013-10-09 12:43:00,74.8,50.8,30.06,North,1,0.0,0.0,43,0.00,CLR,,0.00,WeatherDisplay:10.37,2013-10-09 17:43:00,
2013-10-09 12:48:00,75.4,50.7,30.06,North,1,0.0,0.0,42,0.00,CLR,,0.00,WeatherDisplay:10.37,2013-10-09 17:48:00,
2013-10-09 12:53:00,75.6,50.9,30.06,North,1,0.0,0.0,42,0.00,CLR,,0.00,WeatherDisplay:10.37,2013-10-09 17:53:00,
2013-10-09 12:58:00,75.4,50.7,30.06,North,1,0.0,0.0,42,0.00,CLR,,0.00,WeatherDisplay:10.37,2013-10-09 17:58:00,
2013-10-09 13:03:00,75.6,50.2,30.06,North,1,0.0,0.0,41,0.00,CLR,,0.00,WeatherDisplay:10.37,2013-10-09 18:03:00,
2013-10-09 13:08:00,75.6,50.2,30.06,North,1,0.0,0.0,41,0.00,CLR,,0.00,WeatherDisplay:10.37,2013-10-09 18:08:00,
2013-10-09 13:13:00,75.6,50.2,30.05,North,1,0.0,0.0,41,0.00,CLR,,0.00,WeatherDisplay:10.37,2013-10-09 18:13:00,
2013-10-09 13:18:00,75.6,50.2,30.04,North,1,0.0,0.0,41,0.00,CLR,,0.00,WeatherDisplay:10.37,2013-10-09 18:18:00,
2013-10-09 13:23:00,75.6,50.2,30.04,North,1,0.0,0.0,41,0.00,CLR,,0.00,WeatherDisplay:10.37,2013-10-09 18:23:00,
2013-10-09 13:28:00,75.9,50.5,30.04,North,1,0.0,0.0,41,0.00,CLR,,0.00,WeatherDisplay:10.37,2013-10-09 18:28:00,
2013-10-09 13:33:00,76.3,50.8,30.04,North,1,0.0,0.0,41,0.00,CLR,,0.00,WeatherDisplay:10.37,2013-10-09 18:33:00,
2013-10-09 13:38:00,76.3,50.8,30.04,North,1,0.0,0.0,41,0.00,CLR,,0.00,WeatherDisplay:10.37,2013-10-09 18:38:00,
2013-10-09 13:43:00,76.5,51.0,30.04,North,1,0.0,0.0,41,0.00,CLR,,0.00,WeatherDisplay:10.37,2013-10-09 18:43:00,
2013-10-09 13:48:00,76.5,50.3,30.04,North,1,0.0,0.0,40,0.00,CLR,,0.00,WeatherDisplay:10.37,2013-10-09 18:48:00,
2013-10-09 13:53:00,76.5,49.7,30.03,North,1,0.0,0.0,39,0.00,CLR,,0.00,WeatherDisplay:10.37,2013-10-09 18:53:00,
2013-10-09 13:58:00,76.3,48.8,30.03,North,1,0.0,0.0,38,0.00,CLR,,0.00,WeatherDisplay:10.37,2013-10-09 18:58:00,
2013-10-09 14:03:00,76.3,48.8,30.03,North,1,0.0,0.0,38,0.00,CLR,,0.00,WeatherDisplay:10.37,2013-10-09 19:03:00,
2013-10-09 14:08:00,76.1,49.3,30.03,North,1,0.0,0.0,39,0.00,CLR,,0.00,WeatherDisplay:10.37,2013-10-09 19:08:00,
2013-10-09 14:13:00,76.1,48.6,30.02,North,1,0.0,0.0,38,0.00,CLR,,0.00,WeatherDisplay:10.37,2013-10-09 19:13:00,
2013-10-09 14:18:00,76.6,49.1,30.02,North,1,0.0,0.0,38,0.00,CLR,,0.00,WeatherDisplay:10.37,2013-10-09 19:18:00,
2013-10-09 14:23:00,76.6,49.1,30.02,North,1,0.0,0.0,38,0.00,CLR,,0.00,WeatherDisplay:10.37,2013-10-09 19:23:00,
2013-10-09 14:28:00,76.6,49.1,30.02,North,1,0.0,0.0,38,0.00,CLR,,0.00,WeatherDisplay:10.37,2013-10-09 19:28:00,
2013-10-09 14:33:00,77.0,49.4,30.02,North,1,0.0,0.0,38,0.00,CLR,,0.00,WeatherDisplay:10.37,2013-10-09 19:33:00,
2013-10-09 14:38:00,77.2,48.9,30.01,North,1,0.0,0.0,37,0.00,CLR,,0.00,WeatherDisplay:10.37,2013-10-09 19:38:00,
2013-10-09 14:43:00,77.2,48.9,30.01,North,1,0.0,0.0,37,0.00,CLR,,0.00,WeatherDisplay:10.37,2013-10-09 19:43:00,
2013-10-09 14:48:00,76.8,48.6,30.01,North,1,0.0,0.0,37,0.00,CLR,,0.00,WeatherDisplay:10.37,2013-10-09 19:48:00,
2013-10-09 14:53:00,77.0,48.7,30.01,North,1,0.0,0.0,37,0.00,CLR,,0.00,WeatherDisplay:10.37,2013-10-09 19:53:00,
2013-10-09 14:58:00,76.8,48.6,30.01,North,1,0.0,0.0,37,0.00,CLR,,0.00,WeatherDisplay:10.37,2013-10-09 19:58:00,
2013-10-09 15:03:00,76.8,49.3,30.01,North,1,0.0,0.0,38,0.00,CLR,,0.00,WeatherDisplay:10.37,2013-10-09 20:03:00,
2013-10-09 15:08:00,76.8,48.6,30.00,North,1,0.0,0.0,37,0.00,CLR,,0.00,WeatherDisplay:10.37,2013-10-09 20:08:00,
2013-10-09 15:13:00,76.1,47.9,30.01,North,1,0.0,0.0,37,0.00,CLR,,0.00,WeatherDisplay:10.37,2013-10-09 20:13:00,
2013-10-09 15:18:00,76.1,47.9,30.00,North,1,0.0,0.0,37,0.00,CLR,,0.00,WeatherDisplay:10.37,2013-10-09 20:18:00,
2013-10-09 15:23:00,76.3,47.4,30.01,North,1,0.0,0.0,36,0.00,CLR,,0.00,WeatherDisplay:10.37,2013-10-09 20:23:00,
2013-10-09 15:28:00,76.3,47.4,30.00,North,1,0.0,0.0,36,0.00,CLR,,0.00,WeatherDisplay:10.37,2013-10-09 20:28:00,
2013-10-09 15:33:00,76.3,47.4,30.00,North,1,0.0,0.0,36,0.00,CLR,,0.00,WeatherDisplay:10.37,2013-10-09 20:33:00,
2013-10-09 15:38:00,76.1,47.2,30.00,North,1,0.0,0.0,36,0.00,CLR,,0.00,WeatherDisplay:10.37,2013-10-09 20:38:00,
2013-10-09 15:43:00,75.9,47.0,30.00,North,1,0.0,0.0,36,0.00,CLR,,0.00,WeatherDisplay:10.37,2013-10-09 20:43:00,
2013-10-09 15:48:00,76.1,47.2,30.00,North,1,0.0,0.0,36,0.00,CLR,,0.00,WeatherDisplay:10.37,2013-10-09 20:48:00,
2013-10-09 15:53:00,76.1,47.2,30.00,North,1,0.0,0.0,36,0.00,CLR,,0.00,WeatherDisplay:10.37,2013-10-09 20:53:00,
2013-10-09 15:58:00,76.3,47.4,30.00,North,1,0.0,0.0,36,0.00,CLR,,0.00,WeatherDisplay:10.37,2013-10-09 20:58:00,
2013-10-09 16:03:00,76.5,47.5,30.00,North,1,0.0,0.0,36,0.00,CLR,,0.00,WeatherDisplay:10.37,2013-10-09 21:03:00,
2013-10-09 16:08:00,76.3,47.4,30.00,North,1,0.0,0.0,36,0.00,CLR,,0.00,WeatherDisplay:10.37,2013-10-09 21:08:00,
2013-10-09 16:13:00,76.3,48.1,30.00,North,1,0.0,0.0,37,0.00,CLR,,0.00,WeatherDisplay:10.37,2013-10-09 21:13:00,
2013-10-09 16:18:00,76.1,47.2,30.00,North,1,0.0,0.0,36,0.00,CLR,,0.00,WeatherDisplay:10.37,2013-10-09 21:18:00,
2013-10-09 16:23:00,75.9,47.0,30.00,North,1,0.0,0.0,36,0.00,CLR,,0.00,WeatherDisplay:10.37,2013-10-09 21:23:00,
2013-10-09 16:28:00,76.1,47.2,30.00,North,1,0.0,0.0,36,0.00,CLR,,0.00,WeatherDisplay:10.37,2013-10-09 21:28:00,
2013-10-09 16:33:00,76.3,47.4,29.99,North,1,0.0,0.0,36,0.00,CLR,,0.00,WeatherDisplay:10.37,2013-10-09 21:33:00,
2013-10-09 16:38:00,76.1,47.2,30.00,North,1,0.0,0.0,36,0.00,CLR,,0.00,WeatherDisplay:10.37,2013-10-09 21:38:00,
2013-10-09 16:43:00,75.9,47.0,30.00,North,1,0.0,0.0,36,0.00,CLR,,0.00,WeatherDisplay:10.37,2013-10-09 21:43:00,
2013-10-09 16:48:00,75.6,47.5,30.00,North,1,0.0,0.0,37,0.00,CLR,,0.00,WeatherDisplay:10.37,2013-10-09 21:48:00,
2013-10-09 16:53:00,75.6,47.5,29.99,North,1,0.0,0.0,37,0.00,CLR,,0.00,WeatherDisplay:10.37,2013-10-09 21:53:00,
2013-10-09 16:58:00,75.2,47.1,30.00,North,1,0.0,0.0,37,0.00,CLR,,0.00,WeatherDisplay:10.37,2013-10-09 21:58:00,
2013-10-09 17:03:00,75.0,47.0,30.00,North,1,0.0,0.0,37,0.00,CLR,,0.00,WeatherDisplay:10.37,2013-10-09 22:03:00,
2013-10-09 17:08:00,75.0,47.0,29.99,North,1,0.0,0.0,37,0.00,CLR,,0.00,WeatherDisplay:10.37,2013-10-09 22:08:00,
2013-10-09 17:13:00,75.0,47.0,29.99,North,1,0.0,0.0,37,0.00,CLR,,0.00,WeatherDisplay:10.37,2013-10-09 22:13:00,
2013-10-09 17:18:00,74.8,46.8,29.99,North,1,0.0,0.0,37,0.00,CLR,,0.00,WeatherDisplay:10.37,2013-10-09 22:18:00,
2013-10-09 17:23:00,74.7,46.7,29.99,North,1,0.0,0.0,37,0.00,CLR,,0.00,WeatherDisplay:10.37,2013-10-09 22:23:00,
2013-10-09 17:28:00,74.5,47.2,29.99,North,1,0.0,0.0,38,0.00,CLR,,0.00,WeatherDisplay:10.37,2013-10-09 22:28:00,
2013-10-09 17:33:00,74.3,47.0,29.99,North,1,0.0,0.0,38,0.00,CLR,,0.00,WeatherDisplay:10.37,2013-10-09 22:33:00,
2013-10-09 17:38:00,74.1,46.9,29.99,North,1,0.0,0.0,38,0.00,CLR,,0.00,WeatherDisplay:10.37,2013-10-09 22:38:00,
2013-10-09 17:43:00,73.8,46.6,29.99,North,1,0.0,0.0,38,0.00,CLR,,0.00,WeatherDisplay:10.37,2013-10-09 22:43:00,
2013-10-09 17:48:00,73.6,47.1,29.99,North,1,0.0,0.0,39,0.00,CLR,,0.00,WeatherDisplay:10.37,2013-10-09 22:48:00,
2013-10-09 17:53:00,73.6,47.1,29.99,North,1,0.0,0.0,39,0.00,CLR,,0.00,WeatherDisplay:10.37,2013-10-09 22:53:00,
2013-10-09 17:58:00,73.0,46.6,29.99,North,1,0.0,0.0,39,0.00,CLR,,0.00,WeatherDisplay:10.37,2013-10-09 22:58:00,
2013-10-09 18:03:00,72.9,47.1,29.99,North,1,0.0,0.0,40,0.00,CLR,,0.00,WeatherDisplay:10.37,2013-10-09 23:03:00,
2013-10-09 18:08:00,72.3,46.6,29.99,North,1,0.0,0.0,40,0.00,CLR,,0.00,WeatherDisplay:10.37,2013-10-09 23:08:00,
2013-10-09 18:13:00,72.0,47.0,29.99,North,1,0.0,0.0,41,0.00,CLR,,0.00,WeatherDisplay:10.37,2013-10-09 23:13:00,
2013-10-09 18:18:00,71.8,46.8,29.99,North,1,0.0,0.0,41,0.00,CLR,,0.00,WeatherDisplay:10.37,2013-10-09 23:18:00,
2013-10-09 18:23:00,71.2,46.3,29.99,North,1,0.0,0.0,41,0.00,CLR,,0.00,WeatherDisplay:10.37,2013-10-09 23:23:00,
2013-10-09 18:28:00,71.1,46.8,29.99,North,1,0.0,0.0,42,0.00,CLR,,0.00,WeatherDisplay:10.37,2013-10-09 23:28:00,
2013-10-09 18:33:00,70.5,46.9,29.99,North,1,0.0,0.0,43,0.00,CLR,,0.00,WeatherDisplay:10.37,2013-10-09 23:33:00,
2013-10-09 18:38:00,70.2,46.6,29.99,North,1,0.0,0.0,43,0.00,CLR,,0.00,WeatherDisplay:10.37,2013-10-09 23:38:00,
2013-10-09 18:43:00,70.0,46.4,29.99,North,1,0.0,0.0,43,0.00,CLR,,0.00,WeatherDisplay:10.37,2013-10-09 23:43:00,
2013-10-09 18:48:00,69.4,46.6,29.99,North,1,0.0,0.0,44,0.00,CLR,,0.00,WeatherDisplay:10.37,2013-10-09 23:48:00,
2013-10-09 18:53:00,69.1,46.2,30.00,North,1,0.0,0.0,44,0.00,CLR,,0.00,WeatherDisplay:10.37,2013-10-09 23:53:00,
2013-10-09 18:58:00,68.7,46.5,30.00,North,1,0.0,0.0,45,0.00,CLR,,0.00,WeatherDisplay:10.37,2013-10-09 23:58:00,
2013-10-09 19:03:00,68.7,46.5,30.00,North,1,0.0,0.0,45,0.00,CLR,,0.00,WeatherDisplay:10.37,2013-10-10 00:03:00,
2013-10-09 19:08:00,68.7,47.1,30.00,North,1,0.0,0.0,46,0.00,CLR,,0.00,WeatherDisplay:10.37,2013-10-10 00:08:00,
2013-10-09 19:13:00,67.5,45.9,30.00,North,1,0.0,0.0,46,0.00,CLR,,0.00,WeatherDisplay:10.37,2013-10-10 00:13:00,
2013-10-09 19:18:00,67.1,45.6,30.00,North,1,0.0,0.0,46,0.00,CLR,,0.00,WeatherDisplay:10.37,2013-10-10 00:18:00,
2013-10-09 19:23:00,66.6,45.7,30.00,North,1,0.0,0.0,47,0.00,CLR,,0.00,WeatherDisplay:10.37,2013-10-10 00:23:00,
2013-10-09 19:28:00,66.2,45.4,30.00,North,1,0.0,0.0,47,0.00,CLR,,0.00,WeatherDisplay:10.37,2013-10-10 00:28:00,
2013-10-09 19:33:00,65.8,45.6,30.00,North,1,0.0,0.0,48,0.00,CLR,,0.00,WeatherDisplay:10.37,2013-10-10 00:33:00,
2013-10-09 19:38:00,65.5,45.3,30.01,North,1,0.0,0.0,48,0.00,CLR,,0.00,WeatherDisplay:10.37,2013-10-10 00:38:00,
2013-10-09 19:43:00,65.3,45.1,30.00,North,1,0.0,0.0,48,0.00,CLR,,0.00,WeatherDisplay:10.37,2013-10-10 00:43:00,
2013-10-09 19:48:00,64.9,45.3,30.01,North,1,0.0,0.0,49,0.00,CLR,,0.00,WeatherDisplay:10.37,2013-10-10 00:48:00,
2013-10-09 19:53:00,64.8,45.1,30.00,North,1,0.0,0.0,49,0.00,CLR,,0.00,WeatherDisplay:10.37,2013-10-10 00:53:00,
2013-10-09 19:58:00,64.6,45.0,30.00,North,1,0.0,0.0,49,0.00,CLR,,0.00,WeatherDisplay:10.37,2013-10-10 00:58:00,
2013-10-09 20:03:00,64.2,45.2,30.00,North,1,0.0,0.0,50,0.00,CLR,,0.00,WeatherDisplay:10.37,2013-10-10 01:03:00,
2013-10-09 20:08:00,64.0,45.0,30.01,North,1,0.0,0.0,50,0.00,CLR,,0.00,WeatherDisplay:10.37,2013-10-10 01:08:00,
2013-10-09 20:13:00,63.9,44.9,30.00,North,1,0.0,0.0,50,0.00,CLR,,0.00,WeatherDisplay:10.37,2013-10-10 01:13:00,
2013-10-09 20:18:00,63.5,45.0,30.01,North,1,0.0,0.0,51,0.00,CLR,,0.00,WeatherDisplay:10.37,2013-10-10 01:18:00,
2013-10-09 20:23:00,63.3,44.9,30.01,North,1,0.0,0.0,51,0.00,CLR,,0.00,WeatherDisplay:10.37,2013-10-10 01:23:00,
2013-10-09 20:28:00,63.0,45.1,30.01,North,1,0.0,0.0,52,0.00,CLR,,0.00,WeatherDisplay:10.37,2013-10-10 01:28:00,
2013-10-09 20:33:00,63.0,45.1,30.01,North,1,0.0,0.0,52,0.00,CLR,,0.00,WeatherDisplay:10.37,2013-10-10 01:33:00,
2013-10-09 20:38:00,62.8,44.9,30.01,North,1,0.0,0.0,52,0.00,CLR,,0.00,WeatherDisplay:10.37,2013-10-10 01:38:00,
2013-10-09 20:43:00,62.4,44.6,30.01,North,1,0.0,0.0,52,0.00,CLR,,0.00,WeatherDisplay:10.37,2013-10-10 01:43:00,
2013-10-09 20:48:00,62.4,45.1,30.01,North,1,0.0,0.0,53,0.00,CLR,,0.00,WeatherDisplay:10.37,2013-10-10 01:48:00,
2013-10-09 20:53:00,62.2,44.9,30.01,North,1,0.0,0.0,53,0.00,CLR,,0.00,WeatherDisplay:10.37,2013-10-10 01:53:00,
2013-10-09 20:58:00,62.1,44.7,30.01,North,1,0.0,0.0,53,0.00,CLR,,0.00,WeatherDisplay:10.37,2013-10-10 01:58:00,
2013-10-09 21:03:00,61.9,44.6,30.01,North,1,0.0,0.0,53,0.00,CLR,,0.00,WeatherDisplay:10.37,2013-10-10 02:03:00,
2013-10-09 21:08:00,61.7,44.9,30.01,North,1,0.0,0.0,54,0.00,CLR,,0.00,WeatherDisplay:10.37,2013-10-10 02:08:00,
2013-10-09 21:13:00,61.5,44.7,30.01,North,1,0.0,0.0,54,0.00,CLR,,0.00,WeatherDisplay:10.37,2013-10-10 02:13:00,
2013-10-09 21:18:00,61.3,44.1,30.01,North,1,0.0,0.0,53,0.00,CLR,,0.00,WeatherDisplay:10.37,2013-10-10 02:18:00,
2013-10-09 21:23:00,61.2,44.4,30.01,North,1,0.0,0.0,54,0.00,CLR,,0.00,WeatherDisplay:10.37,2013-10-10 02:23:00,
2013-10-09 21:28:00,61.0,44.2,30.02,North,1,0.0,0.0,54,0.00,CLR,,0.00,WeatherDisplay:10.37,2013-10-10 02:28:00,
2013-10-09 21:33:00,60.8,44.0,30.02,North,1,0.0,0.0,54,0.00,CLR,,0.00,WeatherDisplay:10.37,2013-10-10 02:33:00,
2013-10-09 21:38:00,60.6,44.4,30.02,North,1,0.0,0.0,55,0.00,CLR,,0.00,WeatherDisplay:10.37,2013-10-10 02:38:00,
2013-10-09 21:43:00,60.3,44.0,30.02,North,1,0.0,0.0,55,0.00,CLR,,0.00,WeatherDisplay:10.37,2013-10-10 02:43:00,
2013-10-09 21:48:00,60.3,44.0,30.02,North,1,0.0,0.0,55,0.00,CLR,,0.00,WeatherDisplay:10.37,2013-10-10 02:48:00,
2013-10-09 21:53:00,60.1,43.9,30.02,North,1,0.0,0.0,55,0.00,CLR,,0.00,WeatherDisplay:10.37,2013-10-10 02:53:00,
2013-10-09 21:58:00,59.9,44.2,30.02,North,1,0.0,0.0,56,0.00,CLR,,0.00,WeatherDisplay:10.37,2013-10-10 02:58:00,
2013-10-09 22:03:00,59.7,44.0,30.03,North,1,0.0,0.0,56,0.00,CLR,,0.00,WeatherDisplay:10.37,2013-10-10 03:03:00,
2013-10-09 22:08:00,59.4,43.7,30.02,North,1,0.0,0.0,56,0.00,CLR,,0.00,WeatherDisplay:10.37,2013-10-10 03:08:00,
2013-10-09 22:13:00,59.4,44.1,30.03,North,1,0.0,0.0,57,0.00,CLR,,0.00,WeatherDisplay:10.37,2013-10-10 03:13:00,
2013-10-09 22:18:00,59.2,43.9,30.03,North,1,0.0,0.0,57,0.00,CLR,,0.00,WeatherDisplay:10.37,2013-10-10 03:18:00,
2013-10-09 22:23:00,58.8,43.6,30.03,North,1,0.0,0.0,57,0.00,CLR,,0.00,WeatherDisplay:10.37,2013-10-10 03:23:00,
2013-10-09 22:28:00,58.8,43.6,30.03,North,1,0.0,0.0,57,0.00,CLR,,0.00,WeatherDisplay:10.37,2013-10-10 03:28:00,
2013-10-09 22:33:00,58.6,43.4,30.03,North,1,0.0,0.0,57,0.00,CLR,,0.00,WeatherDisplay:10.37,2013-10-10 03:33:00,
2013-10-09 22:38:00,58.3,43.6,30.02,North,1,0.0,0.0,58,0.00,CLR,,0.00,WeatherDisplay:10.37,2013-10-10 03:38:00,
2013-10-09 22:43:00,58.3,43.6,30.02,North,1,0.0,0.0,58,0.00,CLR,,0.00,WeatherDisplay:10.37,2013-10-10 03:43:00,
2013-10-09 22:48:00,58.1,43.4,30.03,North,1,0.0,0.0,58,0.00,CLR,,0.00,WeatherDisplay:10.37,2013-10-10 03:48:00,
2013-10-09 22:53:00,58.1,43.4,30.02,North,1,0.0,0.0,58,0.00,CLR,,0.00,WeatherDisplay:10.37,2013-10-10 03:53:00,
2013-10-09 22:58:00,57.6,42.9,30.03,North,1,0.0,0.0,58,0.00,CLR,,0.00,WeatherDisplay:10.37,2013-10-10 03:58:00,
2013-10-09 23:01:00,57.6,42.9,30.02,North,1,0.0,0.0,58,0.00,CLR,,0.00,WeatherDisplay:10.37,2013-10-10 04:01:00,
2013-10-09 23:02:00,57.6,42.9,30.02,North,1,0.0,0.0,58,0.00,CLR,,0.00,WeatherDisplay:10.37,2013-10-10 04:02:00,
2013-10-09 23:07:00,57.6,42.9,30.02,North,1,0.0,0.0,58,0.00,CLR,,0.00,WeatherDisplay:10.37,2013-10-10 04:07:00,
2013-10-09 23:12:00,57.4,43.2,30.03,North,1,0.0,0.0,59,0.00,CLR,,0.00,WeatherDisplay:10.37,2013-10-10 04:12:00,
2013-10-09 23:17:00,57.0,42.8,30.03,North,1,0.0,0.0,59,0.00,CLR,,0.00,WeatherDisplay:10.37,2013-10-10 04:17:00,
2013-10-09 23:22:00,56.7,42.5,30.03,North,1,0.0,0.0,59,0.00,CLR,,0.00,WeatherDisplay:10.37,2013-10-10 04:22:00,
2013-10-09 23:27:00,56.7,42.9,30.02,North,1,0.0,0.0,60,0.00,CLR,,0.00,WeatherDisplay:10.37,2013-10-10 04:27:00,
2013-10-09 23:32:00,56.7,42.9,30.02,North,1,0.0,0.0,60,0.00,CLR,,0.00,WeatherDisplay:10.37,2013-10-10 04:32:00,
2013-10-09 23:37:00,56.5,42.8,30.02,North,1,0.0,0.0,60,0.00,CLR,,0.00,WeatherDisplay:10.37,2013-10-10 04:37:00,
2013-10-09 23:42:00,56.3,43.0,30.02,North,1,0.0,0.0,61,0.00,CLR,,0.00,WeatherDisplay:10.37,2013-10-10 04:42:00,
2013-10-09 23:47:00,56.3,43.0,30.02,North,1,0.0,0.0,61,0.00,CLR,,0.00,WeatherDisplay:10.37,2013-10-10 04:47:00,
2013-10-09 23:52:00,56.3,43.0,30.02,North,1,0.0,0.0,61,0.00,CLR,,0.00,WeatherDisplay:10.37,2013-10-10 04:52:00,
2013-10-09 23:57:00,56.3,43.0,30.02,North,1,0.0,0.0,61,0.00,CLR,,0.00,WeatherDisplay:10.37,2013-10-10 04:57:00,